sat.trackr.live / text

‹ back to catalog

QIANFAN-221

NORAD 69850 · 2026-155C

PAYLOAD ACTIVE UNKNOWN

§ Identity

Operator
Country
PRC
Launch date
2026-07-05
Launch site
WSC
Launch vehicle
Mass (kg)
RCS (m²)

External: N2YO · Heavens-Above · Gunter

§ Orbital elements

Epoch: 2026-09-19T17:59:25.737216Z

Period
104.96 min
Inclination
89.0083°
Eccentricity
0.0029442
Mean motion
13.71899379 rev/d
Perigee alt
971.1 km
Apogee alt
1,014.5 km
Semi-major
7,370.9 km
B*
-2.2183e+0
RAAN
53.5671°
Arg perigee
18.7622°
Mean anomaly
341.4619°
Rev number
1,075

§ Raw data

QIANFAN-2211 69850U 26155C   26262.74960344 -.01871803  00000+0 -22183+1 0  99972 69850  89.0083  53.5671 0029442  18.7622 341.4619 13.71899379 10750

JSON: /api/v1/satellites/69850 · /tle

For live sub-satellite position, see the globe view (requires WebGL).

§ Visibility from observer

Set your observer location to see the next 7 days of passes ≥ 10°. The values pass through the URL so the page stays shareable.

No JS? Fill the form by hand. The geolocation button needs JavaScript.